Location: Le Domaine
(47.0333°N, 76.5361°W)
Time: 04:38:03
(UTC-05:00)

Transit 2A Rocket - Visible Passes

Search period start: 14 November 2019 00:00
Search period end: 24 November 2019 00:00
Orbit: 594 x 909 km, 66.7° (Epoch: 14 November)

Date Brightness Start Highest point End Pass type
(mag) Time Alt. Az. Time Alt. Az. Time Alt. Az.
14 Nov 6.3 06:23:14 10° NNW 06:26:58 28° NE 06:30:47 10° ESE visible
15 Nov 6.8 05:41:05 10° N 05:44:09 19° NE 05:47:16 10° E visible
16 Nov 7.1 04:59:11 10° N 05:01:14 13° NNE 05:03:17 10° ENE visible
17 Nov 5.8 05:57:58 10° NNW 06:02:01 37° NE 06:06:11 10° ESE visible
18 Nov 6.5 05:16:00 11° N 05:19:17 24° NE 05:22:55 10° E visible
19 Nov 6.9 04:34:50 14° N 04:36:26 16° NE 04:39:14 10° ENE visible
19 Nov 4.6 06:15:13 10° NW 06:19:34 89° ENE 06:24:07 10° SSE visible
20 Nov 7.4 03:53:43 12° NNE 03:53:43 12° NNE 03:55:01 10° NE visible
20 Nov 5.2 05:33:39 16° NNW 05:37:00 52° NE 05:41:25 10° SE visible
21 Nov 6.1 04:52:35 23° N 04:54:20 32° NE 04:58:22 10° ESE visible
21 Nov 5.3 06:32:53 10° NW 06:36:53 35° WSW 06:41:03 10° S visible
22 Nov 6.7 04:11:34 21° NE 04:11:34 21° NE 04:14:58 10° E visible
22 Nov 4.6 05:51:30 20° NW 05:54:27 63° WSW 05:58:59 10° SSE visible
23 Nov 7.6 03:30:38 12° ENE 03:30:38 12° ENE 03:31:10 10° ENE visible
23 Nov 4.6 05:10:34 42° NNW 05:11:57 74° NE 05:16:31 10° SE visible
